Driggs, ID

10:05 AM MDT on August 25, 2019 (GMT -0600)
Driggs

Weather History for KDIJ - July, 2019

Change the Weather History Date:

Monday, July 22, 2019

  Actual Average (WUND) Record (WUND)
Temperature  
Mean Temperature 71 °F -  
Max Temperature 90 °F - - (-1)
Min Temperature 54 °F - - (-1)
Cooling Degree Days 6    
Growing Degree Days 21 (Base 50)    
Moisture  
Dew Point 45 °F    
Average Humidity 43    
Maximum Humidity 69    
Minimum Humidity 18    
Precipitation  
Precipitation 0.00 in - - ()
Sea Level Pressure  
Sea Level Pressure 30.08 in    
Wind  
Wind Speed 4 mph (SW)    
Max Wind Speed 15 mph    
Max Gust Speed -    
Visibility 10 miles    
Events Rain , Thunderstorm    
Averages and records for this station are not official NWS values.
T = Trace of Precipitation, MM = Missing Value Source: NWS Daily Summary

Daily Weather History Graph

Daily Weather History Graph

Search for Another Location

Airport or City:

Astronomy

Jul. 22, 2019 Rise Set
Actual Time 6:02 AM MDT 8:58 PM MDT
Civil Twilight 5:28 AM MDT 9:32 PM MDT
Nautical Twilight 4:45 AM MDT 10:15 PM MDT
Astronomical Twilight 3:54 AM MDT 11:05 PM MDT
Moon No Moon Rise 11:32 AM MDT (7/22)
Length of Visible Light 16h 03m
Length of Day
14h 55m
Waning Gibbous, 72% of the Moon is Illuminated
Jul 22
Waning Gibbous
Jul 24
Last Quarter
Jul 31
New
Aug 7
First Quarter
Aug 15
Full

Hourly Weather History & Observations

Time (MDT) Temp. Dew Point Humidity Pressure Visibility Wind Dir Wind Speed Gust Speed Precip Events Conditions
12:56 AM 55.9 °F 46.0 °F 69% 30.09 in 10.0 mi Calm Calm - N/A   Clear
1:56 AM 57.0 °F 46.0 °F 67% 30.07 in 10.0 mi ESE 3.5 mph - N/A   Clear
2:56 AM 57.9 °F 46.0 °F 65% 30.05 in 10.0 mi Calm Calm - N/A   Clear
3:56 AM 55.9 °F 45.0 °F 67% 30.05 in 10.0 mi East 3.5 mph - N/A   Clear
4:56 AM 54.0 °F 44.1 °F 69% 30.06 in 10.0 mi East 6.9 mph - N/A   Clear
5:56 AM 57.9 °F 43.0 °F 58% 30.07 in 10.0 mi Calm Calm - N/A   Clear
6:56 AM 57.0 °F 46.0 °F 67% 30.10 in 10.0 mi NE 4.6 mph - N/A   Clear
7:56 AM 66.9 °F 46.0 °F 47% 30.09 in 10.0 mi Calm Calm - N/A   Clear
8:56 AM 73.9 °F 48.0 °F 40% 30.09 in 10.0 mi Calm Calm - N/A   Clear
9:56 AM 80.1 °F 45.0 °F 29% 30.07 in 10.0 mi West 3.5 mph - N/A   Clear
10:56 AM 82.9 °F 48.0 °F 29% 30.09 in 10.0 mi SW 4.6 mph - N/A   Clear
11:56 AM 86.0 °F 46.9 °F 26% 30.08 in 10.0 mi SSW 8.1 mph - N/A   Clear
12:56 PM 87.1 °F 43.0 °F 21% 30.07 in 10.0 mi SW 10.4 mph - N/A   Clear
1:56 PM 88.0 °F 45.0 °F 22% 30.06 in 10.0 mi WNW 15.0 mph - N/A   Clear
2:56 PM 88.0 °F 39.9 °F 18% 30.05 in 10.0 mi Variable 6.9 mph - N/A   Scattered Clouds
3:56 PM 87.1 °F 39.9 °F 19% 30.04 in 10.0 mi SW 6.9 mph - 0.00 in Rain , Thunderstorm Light Rain
4:24 PM 84.2 °F 42.8 °F 23% 30.27 in 10.0 mi West 6.9 mph - 0.00 in   Clear
4:56 PM 84.9 °F 44.1 °F 24% 30.06 in 10.0 mi WNW 9.2 mph - 0.00 in   Clear
5:56 PM 84.0 °F 50.0 °F 31% 30.07 in 10.0 mi North 8.1 mph - N/A   Clear
6:56 PM 78.1 °F 46.9 °F 33% 30.08 in 10.0 mi South 6.9 mph - N/A   Clear
7:56 PM 82.0 °F 39.9 °F 22% 30.03 in 10.0 mi Variable 5.8 mph - N/A   Clear
8:56 PM 71.1 °F 46.0 °F 41% 30.05 in 10.0 mi NNE 5.8 mph - N/A   Clear
9:56 PM 62.1 °F 48.0 °F 60% 30.08 in 10.0 mi South 9.2 mph - N/A   Clear
10:56 PM 62.1 °F 46.9 °F 58% 30.08 in 10.0 mi WSW 4.6 mph - N/A   Clear
11:56 PM 59.0 °F 48.0 °F 67% 30.09 in 10.0 mi East 4.6 mph - N/A   Clear